User: anonymous   Login
Location: Saddleback Butte
(34.6776°N, 117.8050°W)
Time: 20:38:56
(UTC-07:00)
Language:

Cosmos 1862 Rocket - Orbit

View from above orbital plane
View from above orbital plane
View from above satellite
View from above satellite

Ground track
Ground track

The orbit data is extracted from the following two-line orbital elements,

1 18153U 87055B   17117.67716894 +.00000105 +00000-0 +99793-5 0  9996
2 18153 082.4991 151.9133 0020142 248.3864 111.5205 14.83173140589795
Epoch (UTC): 27 April 2017 16:15:07
Eccentricity: 0.0020142
inclination: 82.4991°
perigee height: 605 km
apogee height: 633 km
right ascension of ascending node: 151.9133°
argument of perigee: 248.3864°
revolutions per day: 14.83173140
mean anomaly at epoch: 111.5205°
orbit number at epoch: 58979

The dashed part of the orbit path shows where the satellite is in the earth's shadow,  

DLR